Weather History for Rickenbacker, OH

Change the Weather History Date:

Saturday, April 5, 2014

  Actual Average Record
Temperature  
Mean Temperature 44 °F -  
Max Temperature 50 °F 61 °F 77 °F (2005)
Min Temperature 38 °F 40 °F 26 °F (2004)
Degree Days  
Heating Degree Days 21    
Moisture  
Dew Point 26 °F    
Average Humidity 53    
Maximum Humidity 71    
Minimum Humidity 36    
Precipitation  
Precipitation 0.00 in - - ()
Sea Level Pressure  
Sea Level Pressure 30.11 in    
Wind  
Wind Speed 14 mph (WNW)    
Max Wind Speed 23 mph    
Max Gust Speed 33 mph    
Visibility 10 miles    
Events      
Averages and records for this station are not official NWS values.
T = Trace of Precipitation, MM = Missing Value Source: NWS Daily Summary

Daily Weather History Graph

Daily Weather History Graph

Search for Another Location

Airport:

Trip Planner

Search our weather history database for the weather conditions in past years. The results will help you decide how hot, cold, wet, or windy it might be!

Date:

Astronomy

Apr. 05, 2014 Rise Set
Actual Time 7:09 AM EDT 7:59 PM EDT
Civil Twilight 6:42 AM EDT 8:27 PM EDT
Nautical Twilight 6:09 AM EDT 8:59 PM EDT
Astronomical Twilight 5:36 AM EDT 9:33 PM EDT
Moon 11:16 AM EDT (4/5) 1:08 AM EDT (4/5)
Length of Visible Light 13h 45m
Length of Day
12h 50m
Waxing Crescent, 34% of the Moon is Illuminated
Apr 5
Waxing Crescent
Apr 7
First Quarter
Apr 15
Full
Apr 22
Last Quarter
Apr 29
New

Hourly Weather History & Observations

Time (EDT) Temp. Windchill Dew Point Humidity Pressure Visibility Wind Dir Wind Speed Gust Speed Precip Events Conditions
12:15 AM 43.0 °F 33.8 °F 30.7 °F 62% 29.93 in 10.0 mi West 23.0 mph 28.8 mph N/A   Overcast
12:35 AM 42.6 °F 33.3 °F 28.6 °F 58% 29.95 in 10.0 mi West 23.0 mph 31.1 mph N/A   Overcast
12:55 AM 42.1 °F 32.6 °F 27.7 °F 57% 29.95 in 10.0 mi West 23.0 mph 33.4 mph N/A   Overcast
1:15 AM 41.9 °F 32.8 °F 27.5 °F 57% 29.96 in 10.0 mi West 20.7 mph 28.8 mph N/A   Overcast
1:35 AM 41.9 °F 34.0 °F 27.9 °F 58% 29.97 in 10.0 mi West 16.1 mph 26.5 mph N/A   Overcast
1:55 AM 41.4 °F 33.0 °F 27.5 °F 58% 29.98 in 10.0 mi WNW 17.3 mph 23.0 mph N/A   Overcast
2:15 AM 41.0 °F 31.6 °F 26.1 °F 55% 29.98 in 10.0 mi West 20.7 mph 31.1 mph N/A   Overcast
2:35 AM 40.6 °F 30.9 °F 25.9 °F 56% 29.99 in 10.0 mi West 21.9 mph 31.1 mph N/A   Overcast
2:55 AM 40.5 °F 30.9 °F 26.2 °F 57% 29.99 in 10.0 mi West 20.7 mph 29.9 mph N/A   Overcast
3:15 AM 40.1 °F 30.7 °F 26.1 °F 57% 30.00 in 10.0 mi West 19.6 mph 33.4 mph N/A   Overcast
3:35 AM 39.6 °F 30.6 °F 24.1 °F 54% 30.00 in 10.0 mi West 17.3 mph 25.3 mph N/A   Overcast
3:55 AM 39.4 °F 30.4 °F 24.1 °F 54% 30.00 in 10.0 mi West 17.3 mph 20.7 mph N/A   Overcast
4:15 AM 39.4 °F 31.4 °F 24.4 °F 55% 30.01 in 10.0 mi West 13.8 mph 21.9 mph N/A   Overcast
4:35 AM 39.2 °F 31.2 °F 25.2 °F 57% 30.01 in 10.0 mi West 13.8 mph 18.4 mph N/A   Overcast
4:55 AM 38.8 °F 31.6 °F 25.3 °F 58% 30.02 in 10.0 mi West 11.5 mph - N/A   Overcast
5:15 AM 39.0 °F 31.0 °F 25.7 °F 59% 30.02 in 10.0 mi West 13.8 mph - N/A   Overcast
5:35 AM 38.8 °F 31.6 °F 25.7 °F 59% 30.02 in 10.0 mi WSW 11.5 mph - N/A   Overcast
5:55 AM 38.8 °F 31.6 °F 26.2 °F 61% 30.03 in 10.0 mi West 11.5 mph 16.1 mph N/A   Overcast
6:15 AM 39.2 °F 32.0 °F 26.6 °F 61% 30.04 in 10.0 mi West 11.5 mph - N/A   Overcast
6:35 AM 39.2 °F 31.6 °F 26.8 °F 61% 30.05 in 10.0 mi West 12.7 mph 19.6 mph N/A   Overcast
6:55 AM 39.2 °F 30.8 °F 26.8 °F 61% 30.05 in 10.0 mi West 15.0 mph 20.7 mph N/A   Overcast
7:15 AM 39.2 °F 31.6 °F 25.9 °F 59% 30.06 in 10.0 mi West 12.7 mph - N/A   Overcast
7:35 AM 39.0 °F 31.4 °F 25.7 °F 59% 30.07 in 10.0 mi West 12.7 mph 17.3 mph N/A   Overcast
7:55 AM 39.0 °F 32.3 °F 25.9 °F 59% 30.08 in 10.0 mi West 10.4 mph - N/A   Overcast
8:15 AM 39.2 °F 32.5 °F 26.4 °F 60% 30.08 in 10.0 mi West 10.4 mph - N/A   Overcast
8:35 AM 39.2 °F 32.5 °F 26.8 °F 61% 30.09 in 10.0 mi West 10.4 mph - N/A   Overcast
8:55 AM 39.4 °F 33.2 °F 27.5 °F 62% 30.09 in 10.0 mi West 9.2 mph - N/A   Overcast
9:15 AM 39.6 °F 32.5 °F 27.5 °F 62% 30.10 in 10.0 mi West 11.5 mph - N/A   Overcast
9:35 AM 39.9 °F 32.1 °F 27.7 °F 62% 30.11 in 10.0 mi West 13.8 mph 19.6 mph N/A   Overcast
9:55 AM 39.7 °F 31.2 °F 28.4 °F 64% 30.12 in 10.0 mi West 16.1 mph 21.9 mph N/A   Overcast
10:15 AM 39.0 °F 30.6 °F 27.9 °F 64% 30.13 in 10.0 mi WNW 15.0 mph 23.0 mph N/A   Overcast
10:35 AM 39.6 °F 31.3 °F 27.5 °F 62% 30.14 in 10.0 mi WNW 15.0 mph 21.9 mph N/A   Overcast
10:55 AM 39.7 °F 31.2 °F 25.9 °F 58% 30.15 in 10.0 mi NW 16.1 mph 20.7 mph N/A   Overcast
11:35 AM 40.1 °F 33.2 °F 25.3 °F 56% 30.16 in 10.0 mi WNW 11.5 mph 16.1 mph N/A   Overcast
11:55 AM 40.5 °F 33.6 °F 26.1 °F 57% 30.16 in 10.0 mi WNW 11.5 mph 19.6 mph N/A   Overcast
12:15 PM 40.6 °F 33.4 °F 25.7 °F 55% 30.17 in 10.0 mi WNW 12.7 mph - N/A   Overcast
12:35 PM 41.2 °F 34.1 °F 25.9 °F 55% 30.17 in 10.0 mi West 12.7 mph - N/A   Overcast
12:55 PM 41.5 °F 35.9 °F 25.7 °F 53% 30.17 in 10.0 mi WNW 9.2 mph 18.4 mph N/A   Overcast
1:15 PM 42.1 °F 36.1 °F 25.9 °F 53% 30.17 in 10.0 mi West 10.4 mph - N/A   Overcast
1:35 PM 43.3 °F 38.6 °F 25.9 °F 50% 30.17 in 10.0 mi West 8.1 mph - N/A   Mostly Cloudy
1:55 PM 43.9 °F 38.8 °F 26.6 °F 51% 30.17 in 10.0 mi West 9.2 mph - N/A   Mostly Cloudy
2:15 PM 44.8 °F 39.0 °F 26.2 °F 48% 30.17 in 10.0 mi WNW 11.5 mph - N/A   Overcast
2:35 PM 45.3 °F 41.1 °F 26.4 °F 48% 30.17 in 10.0 mi NW 8.1 mph - N/A   Mostly Cloudy
2:55 PM 46.2 °F - 26.6 °F 46% 30.17 in 10.0 mi Calm Calm - N/A   Mostly Cloudy
3:15 PM 46.6 °F - 26.4 °F 45% 30.16 in 10.0 mi NNW 4.6 mph - N/A   Mostly Cloudy
3:35 PM 47.1 °F - 25.5 °F 43% 30.16 in 10.0 mi WNW 5.8 mph - N/A   Mostly Cloudy
3:55 PM 47.7 °F - 25.5 °F 42% 30.15 in 10.0 mi NW 5.8 mph - N/A   Scattered Clouds
4:15 PM 48.0 °F - 25.5 °F 41% 30.15 in 10.0 mi WNW 5.8 mph - N/A   Scattered Clouds
4:35 PM 48.2 °F - 25.0 °F 40% 30.15 in 10.0 mi NW 8.1 mph - N/A   Clear
4:55 PM 49.1 °F - 25.0 °F 39% 30.15 in 10.0 mi WNW 9.2 mph - N/A   Clear
5:15 PM 49.8 °F - 24.6 °F 37% 30.15 in 10.0 mi NW 6.9 mph - N/A   Clear
5:35 PM 50.0 °F - 24.3 °F 37% 30.15 in 10.0 mi North 4.6 mph - N/A   Clear
5:55 PM 49.3 °F - 23.7 °F 37% 30.15 in 10.0 mi WNW 5.8 mph - N/A   Scattered Clouds
6:15 PM 49.3 °F - 23.4 °F 36% 30.16 in 10.0 mi WNW 4.6 mph - N/A   Clear
6:35 PM 49.3 °F - 23.9 °F 37% 30.16 in 10.0 mi NNW 3.5 mph - N/A   Scattered Clouds
6:55 PM 49.1 °F - 23.2 °F 36% 30.15 in 10.0 mi Calm Calm - N/A   Clear
7:15 PM 48.9 °F - 23.4 °F 37% 30.15 in 10.0 mi NW 3.5 mph - N/A   Clear
7:35 PM 48.4 °F - 23.5 °F 38% 30.16 in 10.0 mi WNW 3.5 mph - N/A   Clear
7:55 PM 47.5 °F - 23.0 °F 38% 30.16 in 10.0 mi Calm Calm - N/A   Clear
8:15 PM 46.6 °F - 24.3 °F 42% 30.17 in 10.0 mi Calm Calm - N/A   Clear
8:35 PM 46.6 °F - 24.8 °F 43% 30.18 in 10.0 mi Calm Calm - N/A   Clear
8:55 PM 45.9 °F - 26.6 °F 47% 30.18 in 10.0 mi Calm Calm - N/A   Clear
9:15 PM 44.4 °F 42.9 °F 27.3 °F 51% 30.19 in 10.0 mi East 3.5 mph - N/A   Clear
9:35 PM 42.3 °F 40.5 °F 28.9 °F 59% 30.19 in 10.0 mi East 3.5 mph - N/A   Clear
9:55 PM 41.9 °F 40.0 °F 28.6 °F 59% 30.20 in 10.0 mi East 3.5 mph - N/A   Clear
10:15 PM 41.4 °F 39.4 °F 28.8 °F 61% 30.19 in 10.0 mi East 3.5 mph - N/A   Clear
10:35 PM 40.6 °F 38.6 °F 29.5 °F 64% 30.19 in 10.0 mi East 3.5 mph - N/A   Clear
10:55 PM 40.1 °F 38.0 °F 28.2 °F 63% 30.19 in 10.0 mi SE 3.5 mph - N/A   Clear
11:15 PM 39.0 °F - 28.6 °F 66% 30.19 in 10.0 mi Calm Calm - N/A   Clear
11:35 PM 39.0 °F - 28.6 °F 66% 30.19 in 10.0 mi Calm Calm - N/A   Clear
11:55 PM 38.7 °F - 29.8 °F 71% 30.19 in 10.0 mi Calm Calm - N/A   Clear